Gallup, NM

10:53 PM MDT on June 26, 2017 (GMT -0600)
Gallup Municipal

Weather History for KGUP - May, 2013

Change the Weather History Date:

Monday, May 6, 2013

  Actual Average Record
Temperature  
Mean Temperature 52 °F -  
Max Temperature 66 °F 69 °F 85 °F (1989)
Min Temperature 41 °F 31 °F 20 °F (1993)
Degree Days  
Heating Degree Days 13    
Growing Degree Days 2 (Base 50)    
Moisture  
Dew Point 33 °F    
Average Humidity 54    
Maximum Humidity 93    
Minimum Humidity 27    
Precipitation  
Precipitation 0.02 in - - ()
Sea Level Pressure  
Sea Level Pressure 29.86 in    
Wind  
Wind Speed 10 mph (SW)    
Max Wind Speed 20 mph    
Max Gust Speed 28 mph    
Visibility 10 miles    
Events Rain    
Averages and records for this station are not official NWS values.
T = Trace of Precipitation, MM = Missing Value Source: NWS Daily Summary

Daily Weather History Graph

Daily Weather History Graph

Search for Another Location

Airport or City:

Trip Planner

Search our weather history database for the weather conditions in past years. The results will help you decide how hot, cold, wet, or windy it might be!

Date:

Astronomy

May. 06, 2013 Rise Set
Actual Time 6:18 AM MDT 8:05 PM MDT
Civil Twilight 5:50 AM MDT 8:33 PM MDT
Nautical Twilight 5:17 AM MDT 9:07 PM MDT
Astronomical Twilight 4:41 AM MDT 9:42 PM MDT
Moon 4:15 AM MDT (5/6) 5:14 PM MDT (5/6)
Length of Visible Light 14h 43m
Length of Day
13h 47m
Waning Crescent, 10% of the Moon is Illuminated
May 6
Waning Crescent
May 9
New
May 17
First Quarter
May 24
Full
May 31
Last Quarter

Hourly Weather History & Observations

Time (MDT) Temp. Windchill Dew Point Humidity Pressure Visibility Wind Dir Wind Speed Gust Speed Precip Events Conditions
12:53 AM 57.0 °F - 23.0 °F 27% 29.65 in 10.0 mi SE 5.8 mph - N/A   Mostly Cloudy
1:53 AM 57.0 °F - 25.0 °F 29% 29.61 in 10.0 mi ESE 10.4 mph - N/A   Mostly Cloudy
2:53 AM 53.1 °F - 32.0 °F 45% 29.63 in 10.0 mi East 8.1 mph - N/A   Mostly Cloudy
3:53 AM 52.0 °F - 30.9 °F 45% 29.67 in 10.0 mi WSW 11.5 mph - N/A   Overcast
4:53 AM 51.1 °F - 32.0 °F 48% 29.69 in 10.0 mi West 6.9 mph - 0.00 in   Overcast
5:53 AM 48.9 °F - 28.0 °F 44% 29.73 in 10.0 mi WSW 12.7 mph 21.9 mph N/A   Overcast
6:53 AM 46.0 °F 39.9 °F 33.1 °F 61% 29.78 in 10.0 mi SW 13.8 mph - N/A   Overcast
7:53 AM 44.1 °F 36.5 °F 37.0 °F 76% 29.84 in 10.0 mi SW 17.3 mph - 0.00 in Rain Light Rain
8:28 AM 42.8 °F 36.2 °F 39.2 °F 87% 30.12 in 9.0 mi SW 12.7 mph - 0.01 in Rain Light Rain
8:42 AM 41.0 °F 34.7 °F 37.4 °F 87% 30.13 in 8.0 mi SW 10.4 mph - 0.01 in Rain Light Rain
8:46 AM 41.0 °F 34.3 °F 39.2 °F 93% 30.13 in 8.0 mi SW 11.5 mph - 0.01 in Rain Light Rain
8:53 AM 42.1 °F 35.7 °F 39.0 °F 89% 29.90 in 9.0 mi SW 11.5 mph - 0.01 in Rain Light Rain
9:53 AM 43.0 °F 37.2 °F 39.0 °F 86% 29.92 in 10.0 mi SSW 10.4 mph - 0.01 in Rain Light Rain
10:02 AM 44.6 °F 39.2 °F 39.2 °F 81% 30.13 in 10.0 mi SW 10.4 mph - 0.00 in   Overcast
10:53 AM 44.1 °F 38.1 °F 37.9 °F 79% 29.87 in 10.0 mi SW 11.5 mph - 0.00 in   Mostly Cloudy
11:01 AM 44.6 °F 41.4 °F 39.2 °F 81% 30.13 in 10.0 mi SW 5.8 mph - N/A   Scattered Clouds
11:16 AM 46.4 °F 41.5 °F 39.2 °F 76% 30.13 in 10.0 mi SW 10.4 mph - N/A   Mostly Cloudy
11:53 AM 50.0 °F - 37.0 °F 61% 29.85 in 10.0 mi WSW 8.1 mph 17.3 mph N/A   Overcast
12:11 PM 53.6 °F - 35.6 °F 51% 30.12 in 10.0 mi WSW 11.5 mph - N/A   Mostly Cloudy
12:53 PM 55.9 °F - 35.1 °F 45% 29.79 in 10.0 mi SSW 12.7 mph 20.7 mph N/A   Mostly Cloudy
1:53 PM 59.0 °F - 33.1 °F 38% 29.77 in 10.0 mi SW 17.3 mph 26.5 mph N/A   Clear
2:53 PM 60.1 °F - 28.9 °F 31% 29.77 in 10.0 mi WSW 19.6 mph 23.0 mph N/A   Mostly Cloudy
3:53 PM 63.0 °F - 30.0 °F 29% 29.73 in 10.0 mi SW 13.8 mph 27.6 mph N/A   Mostly Cloudy
4:53 PM 63.0 °F - 30.9 °F 30% 29.73 in 10.0 mi SSW 16.1 mph 21.9 mph N/A   Mostly Cloudy
5:53 PM 62.1 °F - 30.9 °F 31% 29.75 in 10.0 mi WSW 16.1 mph 27.6 mph N/A   Scattered Clouds
6:53 PM 61.0 °F - 27.0 °F 27% 29.77 in 10.0 mi SW 18.4 mph 26.5 mph N/A   Partly Cloudy
7:53 PM 57.9 °F - 27.0 °F 31% 29.83 in 10.0 mi WSW 10.4 mph - N/A   Clear
8:53 PM 55.9 °F - 28.0 °F 34% 29.88 in 10.0 mi WSW 10.4 mph - N/A   Mostly Cloudy
9:53 PM 54.0 °F - 28.9 °F 38% 29.90 in 10.0 mi WSW 5.8 mph - N/A   Mostly Cloudy
10:53 PM 51.1 °F - 30.0 °F 44% 29.93 in 10.0 mi SW 8.1 mph - N/A   Clear
11:53 PM 48.9 °F - 30.0 °F 48% 29.91 in 10.0 mi Calm Calm - N/A   Clear